Weather History for Nenana, AK

Change the Weather History Date:

Thursday, August 1, 2013

  Actual Average Record
Temperature  
Mean Temperature 65 °F -  
Max Temperature 84 °F 69 °F 84 °F (2013)
Min Temperature 55 °F 48 °F 45 °F (1973)
Growing Degree Days 15 (Base 50)    
Moisture  
Dew Point 53 °F    
Average Humidity 62    
Maximum Humidity 93    
Minimum Humidity 33    
Precipitation  
Precipitation 0.00 in - - ()
Sea Level Pressure  
Sea Level Pressure 29.94 in    
Wind  
Wind Speed 2 mph (ENE)    
Max Wind Speed 10 mph    
Max Gust Speed 16 mph    
Visibility 10 miles    
Events      
Averages and records for this station are not official NWS values.
T = Trace of Precipitation, MM = Missing Value Source: NWS Daily Summary

Daily Weather History Graph

Daily Weather History Graph

Search for Another Location

Airport:

Trip Planner

Search our weather history database for the weather conditions in past years. The results will help you decide how hot, cold, wet, or windy it might be!

Date:

Astronomy

Aug. 01, 2013 Rise Set
Actual Time 5:00 AM AKDT 11:02 PM AKDT
Civil Twilight 3:26 AM AKDT 12:33 AM AKDT
Nautical Twilight Sun does not rise Sun does not rise
Astronomical Twilight Sun does not rise Sun does not rise
Moon 12:31 AM AKDT (8/1) 7:38 PM AKDT (8/1)
Length of Visible Light 21h 07m
Length of Day
18h 01m
Waning Crescent, 22% of the Moon is Illuminated
Aug 1
Waning Crescent
Aug 6
New
Aug 14
First Quarter
Aug 20
Full
Aug 28
Last Quarter

Hourly Weather History & Observations

Time (AKDT) Temp. Heat Index Dew Point Humidity Pressure Visibility Wind Dir Wind Speed Gust Speed Precip Events Conditions
12:53 AM 60.1 °F - 55.0 °F 83% 30.01 in 10.0 mi Calm Calm - N/A   Clear
1:53 AM 57.0 °F - 54.0 °F 89% 30.02 in 10.0 mi Calm Calm - N/A   Clear
2:53 AM 54.0 °F - 51.1 °F 90% 30.02 in 10.0 mi Calm Calm - N/A   Clear
3:53 AM 53.1 °F - 51.1 °F 93% 30.02 in 10.0 mi Calm Calm - N/A   Clear
4:53 AM 53.1 °F - 50.0 °F 89% 30.01 in 10.0 mi Calm Calm - N/A   Clear
5:53 AM 52.0 °F - 48.0 °F 86% 30.01 in 10.0 mi Calm Calm - N/A   Clear
6:53 AM 54.0 °F - 51.1 °F 90% 30.01 in 10.0 mi Calm Calm - N/A   Clear
7:53 AM 57.9 °F - 52.0 °F 81% 30.01 in 10.0 mi East 4.6 mph - N/A   Clear
8:53 AM 62.1 °F - 53.1 °F 72% 30.01 in 10.0 mi East 3.5 mph - N/A   Clear
9:53 AM 66.0 °F - 54.0 °F 65% 30.00 in 10.0 mi Variable 3.5 mph - N/A   Clear
10:53 AM 70.0 °F - 53.1 °F 55% 29.99 in 10.0 mi East 3.5 mph - N/A   Clear
11:53 AM 75.0 °F - 54.0 °F 48% 29.97 in 10.0 mi Calm Calm - N/A   Clear
12:53 PM 77.0 °F - 52.0 °F 42% 29.95 in 10.0 mi East 5.8 mph - N/A   Clear
1:53 PM 78.1 °F - 51.1 °F 39% 29.93 in 10.0 mi ENE 5.8 mph - N/A   Clear
2:53 PM 81.0 °F 80.4 °F 53.1 °F 38% 29.91 in 10.0 mi ENE 10.4 mph - N/A   Clear
3:53 PM 82.0 °F - 52.0 °F 35% 29.89 in 10.0 mi ENE 5.8 mph 16.1 mph N/A   Clear
4:53 PM 82.9 °F - 52.0 °F 34% 29.86 in 10.0 mi ENE 9.2 mph - N/A   Clear
5:53 PM 82.9 °F - 52.0 °F 34% 29.83 in 10.0 mi ENE 6.9 mph - N/A   Clear
6:53 PM 82.9 °F - 51.1 °F 33% 29.81 in 10.0 mi ENE 9.2 mph - N/A   Clear
7:53 PM 82.9 °F - 52.0 °F 34% 29.80 in 10.0 mi ENE 9.2 mph - N/A   Partly Cloudy
8:53 PM 80.1 °F - 50.0 °F 35% 29.80 in 10.0 mi East 6.9 mph - N/A   Clear
9:53 PM 75.9 °F - 51.1 °F 42% 29.80 in 10.0 mi South 4.6 mph - N/A   Clear
10:53 PM 70.0 °F - 55.0 °F 59% 29.79 in 10.0 mi Calm Calm - N/A   Partly Cloudy
11:53 PM 66.0 °F - 54.0 °F 65% 29.79 in 10.0 mi Calm Calm - N/A   Scattered Clouds